DAL2091 KSYR-KDTW

Flight info

Callsign DAL2091
Flight time 1h 5m
Altitude 38000
Route SYR DINES DONEO TPGUN2
Aircraft A319/M-SDE3FGHIRWY/LB1

Departure

Time 2026-04-23 02:15
Airport Syracuse Hancock International Airport (KSYR)

Arrival

Time 2026-04-23 03:21
Airport Detroit Metropolitan Wayne County Airport (KDTW)
Time Latitude Longitude Altitude Speed Heading
2026-04-23 02:03 43.11344 -76.10946 417 ft 0 kts 201°
2026-04-23 02:09 43.11357 -76.10940 409 ft 3 kts 196°
2026-04-23 02:09 43.11377 -76.10934 413 ft 3 kts 177°
2026-04-23 02:10 43.11393 -76.10939 416 ft 3 kts 130°
2026-04-23 02:10 43.11398 -76.10950 418 ft 1 kts 89°
2026-04-23 02:10 43.11398 -76.10951 418 ft 0 kts 89°
2026-04-23 02:11 43.11398 -76.10947 418 ft 2 kts 89°
2026-04-23 02:12 43.11400 -76.10859 422 ft 17 kts 88°
2026-04-23 02:12 43.11405 -76.10676 411 ft 20 kts 88°
2026-04-23 02:12 43.11390 -76.10490 415 ft 20 kts 122°
2026-04-23 02:12 43.11295 -76.10346 420 ft 21 kts 134°
2026-04-23 02:13 43.11189 -76.10206 408 ft 22 kts 129°
2026-04-23 02:13 43.11078 -76.10047 418 ft 23 kts 132°
2026-04-23 02:13 43.10965 -76.09887 412 ft 24 kts 133°
2026-04-23 02:13 43.10854 -76.09731 420 ft 22 kts 143°
2026-04-23 02:14 43.10749 -76.09574 419 ft 22 kts 134°
2026-04-23 02:14 43.10653 -76.09433 426 ft 18 kts 128°
2026-04-23 02:14 43.10666 -76.09322 427 ft 10 kts 49°
2026-04-23 02:14 43.10721 -76.09295 429 ft 9 kts 325°
2026-04-23 02:15 43.11065 -76.09778 420 ft 101 kts 314°
2026-04-23 02:15 43.11714 -76.10690 518 ft 155 kts 312°
2026-04-23 02:15 43.12457 -76.11758 1302 ft 154 kts 313°
2026-04-23 02:16 43.13176 -76.12844 2115 ft 155 kts 310°
2026-04-23 02:16 43.13738 -76.14227 2589 ft 178 kts 298°
2026-04-23 02:16 43.14333 -76.15835 3007 ft 202 kts 300°
2026-04-23 02:16 43.15015 -76.17656 3537 ft 227 kts 299°
2026-04-23 02:17 43.15774 -76.19679 4242 ft 247 kts 298°
2026-04-23 02:17 43.16345 -76.21936 5303 ft 254 kts 286°
2026-04-23 02:17 43.16761 -76.24289 6484 ft 254 kts 285°
2026-04-23 02:17 43.17152 -76.26656 7581 ft 256 kts 284°
2026-04-23 02:18 43.17540 -76.29046 8649 ft 258 kts 285°
2026-04-23 02:18 43.17932 -76.31460 9727 ft 261 kts 285°
2026-04-23 02:18 43.18338 -76.33937 10447 ft 276 kts 285°
2026-04-23 02:18 43.18779 -76.36579 11114 ft 289 kts 286°
2026-04-23 02:19 43.19231 -76.39285 12055 ft 293 kts 286°
2026-04-23 02:19 43.19686 -76.42017 13032 ft 295 kts 287°
2026-04-23 02:19 43.20142 -76.44767 13996 ft 297 kts 287°
2026-04-23 02:19 43.20601 -76.47535 14846 ft 299 kts 287°
2026-04-23 02:20 43.21067 -76.50326 15679 ft 302 kts 288°
2026-04-23 02:20 43.21538 -76.53149 16427 ft 306 kts 288°
2026-04-23 02:20 43.22014 -76.56013 17199 ft 310 kts 289°
2026-04-23 02:20 43.22495 -76.58909 17990 ft 313 kts 289°
2026-04-23 02:21 43.22978 -76.61834 18725 ft 316 kts 289°
2026-04-23 02:21 43.23463 -76.64788 19429 ft 319 kts 289°
2026-04-23 02:21 43.23950 -76.67761 20151 ft 321 kts 289°
2026-04-23 02:21 43.24439 -76.70754 20877 ft 323 kts 289°
2026-04-23 02:22 43.24932 -76.73766 21596 ft 325 kts 289°
2026-04-23 02:22 43.25427 -76.76804 22311 ft 327 kts 289°
2026-04-23 02:22 43.25925 -76.79861 23021 ft 330 kts 288°
2026-04-23 02:22 43.26426 -76.82943 23699 ft 332 kts 288°
2026-04-23 02:23 43.26931 -76.86049 24284 ft 335 kts 289°
2026-04-23 02:23 43.27442 -76.89179 24846 ft 338 kts 289°
2026-04-23 02:23 43.27958 -76.92336 25397 ft 340 kts 289°
2026-04-23 02:23 43.28476 -76.95516 25950 ft 343 kts 289°
2026-04-23 02:24 43.28996 -76.98719 26496 ft 345 kts 289°
2026-04-23 02:24 43.29517 -77.01944 27030 ft 347 kts 289°
2026-04-23 02:24 43.30038 -77.05194 27551 ft 350 kts 289°
2026-04-23 02:24 43.30557 -77.08469 28058 ft 353 kts 289°
2026-04-23 02:25 43.30830 -77.11868 28561 ft 365 kts 279°
2026-04-23 02:25 43.30610 -77.15405 29057 ft 380 kts 269°
2026-04-23 02:25 43.29968 -77.18984 29497 ft 389 kts 265°
2026-04-23 02:25 43.29278 -77.22587 29956 ft 392 kts 265°
2026-04-23 02:26 43.28578 -77.26225 30298 ft 396 kts 265°
2026-04-23 02:26 43.27874 -77.29897 30669 ft 400 kts 265°
2026-04-23 02:26 43.27164 -77.33597 31051 ft 402 kts 266°
2026-04-23 02:26 43.26451 -77.37323 31437 ft 405 kts 266°
2026-04-23 02:27 43.25744 -77.41019 31817 ft 407 kts 266°
2026-04-23 02:27 43.25022 -77.44789 32190 ft 410 kts 266°
2026-04-23 02:27 43.24292 -77.48581 32558 ft 413 kts 266°
2026-04-23 02:27 43.23554 -77.52387 32999 ft 413 kts 266°
2026-04-23 02:28 43.22811 -77.56186 33522 ft 412 kts 266°
2026-04-23 02:28 43.22071 -77.59968 34019 ft 410 kts 266°
2026-04-23 02:28 43.21334 -77.63743 34456 ft 409 kts 266°
2026-04-23 02:28 43.20599 -77.67507 34872 ft 409 kts 266°
2026-04-23 02:29 43.19866 -77.71267 35273 ft 408 kts 265°
2026-04-23 02:29 43.19134 -77.75020 35663 ft 408 kts 265°
2026-04-23 02:29 43.18402 -77.78771 36043 ft 407 kts 265°
2026-04-23 02:29 43.17669 -77.82511 36378 ft 407 kts 265°
2026-04-23 02:30 43.16933 -77.86255 36731 ft 407 kts 265°
2026-04-23 02:30 43.16198 -77.89992 37095 ft 406 kts 265°
2026-04-23 02:30 43.15462 -77.93723 37438 ft 406 kts 265°
2026-04-23 02:30 43.14725 -77.97449 37766 ft 405 kts 264°
2026-04-23 02:31 43.13989 -78.01172 38021 ft 405 kts 264°
2026-04-23 02:31 43.12521 -78.08518 38059 ft 397 kts 264°
2026-04-23 02:32 43.11070 -78.15780 38061 ft 395 kts 265°
2026-04-23 02:32 43.09621 -78.23032 38062 ft 395 kts 265°
2026-04-23 02:33 43.08171 -78.30280 38061 ft 395 kts 264°
2026-04-23 02:33 43.06709 -78.37527 38057 ft 395 kts 264°
2026-04-23 02:34 43.05246 -78.44764 38055 ft 395 kts 264°
2026-04-23 02:34 43.03781 -78.51999 38036 ft 395 kts 264°
2026-04-23 02:35 43.02304 -78.59239 38041 ft 396 kts 264°
2026-04-23 02:35 43.00816 -78.66475 38049 ft 396 kts 264°
2026-04-23 02:36 42.99585 -78.72488 38031 ft 395 kts 264°
2026-04-23 02:36 42.98104 -78.79714 38044 ft 395 kts 264°
2026-04-23 02:37 42.96612 -78.86936 38057 ft 395 kts 264°
2026-04-23 02:37 42.95114 -78.94150 38059 ft 395 kts 264°
2026-04-23 02:38 42.93607 -79.01359 38056 ft 395 kts 264°
2026-04-23 02:38 42.92098 -79.08557 38028 ft 394 kts 264°
2026-04-23 02:39 42.90597 -79.15749 38017 ft 394 kts 264°
2026-04-23 02:39 42.89085 -79.22938 38023 ft 394 kts 263°
2026-04-23 02:40 42.87564 -79.30123 38029 ft 394 kts 263°
2026-04-23 02:40 42.86044 -79.37306 38033 ft 394 kts 263°
2026-04-23 02:41 42.84524 -79.44487 38011 ft 395 kts 263°
2026-04-23 02:41 42.82993 -79.51668 38023 ft 395 kts 263°
2026-04-23 02:42 42.81458 -79.58848 38033 ft 395 kts 263°
2026-04-23 02:42 42.79917 -79.66027 38032 ft 395 kts 263°
2026-04-23 02:43 42.78462 -79.73213 38034 ft 388 kts 269°
2026-04-23 02:43 42.77827 -79.80432 38006 ft 384 kts 272°
2026-04-23 02:44 42.77235 -79.87659 38019 ft 386 kts 272°
2026-04-23 02:44 42.76622 -79.94922 38028 ft 386 kts 272°
2026-04-23 02:45 42.76002 -80.02186 38038 ft 387 kts 271°
2026-04-23 02:45 42.75378 -80.09450 38043 ft 387 kts 271°
2026-04-23 02:46 42.74756 -80.16713 38023 ft 386 kts 271°
2026-04-23 02:46 42.74135 -80.23923 38022 ft 387 kts 271°
2026-04-23 02:47 42.73503 -80.31218 38013 ft 390 kts 271°
2026-04-23 02:47 42.72830 -80.38555 38032 ft 395 kts 267°
2026-04-23 02:48 42.71796 -80.45884 38063 ft 393 kts 268°
2026-04-23 02:48 42.70859 -80.53193 38072 ft 392 kts 269°
2026-04-23 02:49 42.69918 -80.60476 38042 ft 391 kts 268°
2026-04-23 02:49 42.68954 -80.67752 38057 ft 391 kts 268°
2026-04-23 02:50 42.67978 -80.75019 38059 ft 391 kts 268°
2026-04-23 02:50 42.67000 -80.82283 38062 ft 391 kts 268°
2026-04-23 02:51 42.66021 -80.89545 38056 ft 391 kts 268°
2026-04-23 02:51 42.65031 -80.96808 38036 ft 391 kts 268°
2026-04-23 02:52 42.64024 -81.04080 38037 ft 393 kts 268°
2026-04-23 02:52 42.63524 -81.07754 37373 ft 400 kts 268°
2026-04-23 02:52 42.63015 -81.11493 36713 ft 401 kts 268°
2026-04-23 02:52 42.62505 -81.15181 36298 ft 395 kts 268°
2026-04-23 02:53 42.61996 -81.18830 35845 ft 391 kts 268°
2026-04-23 02:53 42.61490 -81.22438 35376 ft 388 kts 268°
2026-04-23 02:53 42.60989 -81.26023 34916 ft 385 kts 268°
2026-04-23 02:53 42.60492 -81.29576 34444 ft 382 kts 268°
2026-04-23 02:54 42.59997 -81.33107 33976 ft 379 kts 268°
2026-04-23 02:54 42.59506 -81.36611 33485 ft 376 kts 268°
2026-04-23 02:54 42.59021 -81.40079 33040 ft 372 kts 268°
2026-04-23 02:54 42.58538 -81.43513 32594 ft 369 kts 267°
2026-04-23 02:55 42.58060 -81.46921 32150 ft 366 kts 267°
2026-04-23 02:55 42.57586 -81.50304 31720 ft 364 kts 267°
2026-04-23 02:55 42.57113 -81.53661 31293 ft 361 kts 267°
2026-04-23 02:55 42.56640 -81.57003 30867 ft 360 kts 267°
2026-04-23 02:56 42.56167 -81.60327 30455 ft 358 kts 266°
2026-04-23 02:56 42.55700 -81.63591 30038 ft 357 kts 266°
2026-04-23 02:56 42.55228 -81.66881 29593 ft 354 kts 266°
2026-04-23 02:56 42.54758 -81.70130 29219 ft 349 kts 266°
2026-04-23 02:57 42.54293 -81.73343 28838 ft 345 kts 266°
2026-04-23 02:57 42.53836 -81.76512 28473 ft 340 kts 266°
2026-04-23 02:57 42.53386 -81.79636 28109 ft 336 kts 266°
2026-04-23 02:57 42.52941 -81.82724 27739 ft 332 kts 266°
2026-04-23 02:58 42.52502 -81.85786 27361 ft 330 kts 266°
2026-04-23 02:58 42.52063 -81.88833 27000 ft 329 kts 266°
2026-04-23 02:58 42.51624 -81.91865 26610 ft 327 kts 265°
2026-04-23 02:58 42.51187 -81.94879 26225 ft 325 kts 265°
2026-04-23 02:59 42.50750 -81.97881 25837 ft 324 kts 265°
2026-04-23 02:59 42.50314 -82.00866 25438 ft 322 kts 265°
2026-04-23 02:59 42.49878 -82.03839 25039 ft 321 kts 265°
2026-04-23 02:59 42.49443 -82.06795 24618 ft 320 kts 264°
2026-04-23 03:00 42.49009 -82.09748 24206 ft 319 kts 264°
2026-04-23 03:00 42.48577 -82.12689 23794 ft 318 kts 264°
2026-04-23 03:00 42.48147 -82.15625 23334 ft 317 kts 264°
2026-04-23 03:00 42.47716 -82.18547 22910 ft 315 kts 264°
2026-04-23 03:01 42.47284 -82.21443 22514 ft 313 kts 263°
2026-04-23 03:01 42.46853 -82.24323 22115 ft 311 kts 263°
2026-04-23 03:01 42.46427 -82.27183 21725 ft 309 kts 263°
2026-04-23 03:01 42.46004 -82.30027 21339 ft 307 kts 263°
2026-04-23 03:02 42.45584 -82.32861 20952 ft 306 kts 263°
2026-04-23 03:02 42.45166 -82.35680 20570 ft 305 kts 263°
2026-04-23 03:02 42.44748 -82.38491 20190 ft 304 kts 263°
2026-04-23 03:02 42.44328 -82.41296 19793 ft 304 kts 263°
2026-04-23 03:03 42.43906 -82.44096 19429 ft 303 kts 263°
2026-04-23 03:03 42.43485 -82.46892 19053 ft 303 kts 262°
2026-04-23 03:03 42.43065 -82.49691 18678 ft 303 kts 262°
2026-04-23 03:03 42.42642 -82.52489 18276 ft 304 kts 262°
2026-04-23 03:04 42.42215 -82.55300 17850 ft 305 kts 262°
2026-04-23 03:04 42.41790 -82.58103 17477 ft 303 kts 262°
2026-04-23 03:04 42.41367 -82.60893 17105 ft 302 kts 262°
2026-04-23 03:04 42.40946 -82.63673 16743 ft 301 kts 262°
2026-04-23 03:05 42.40522 -82.66445 16389 ft 300 kts 262°
2026-04-23 03:05 42.40100 -82.69210 16045 ft 300 kts 262°
2026-04-23 03:05 42.39683 -82.71935 15698 ft 300 kts 262°
2026-04-23 03:05 42.39260 -82.74692 15344 ft 299 kts 262°
2026-04-23 03:06 42.38791 -82.77433 15000 ft 301 kts 256°
2026-04-23 03:06 42.38070 -82.80126 14797 ft 308 kts 253°
2026-04-23 03:06 42.37324 -82.82848 14591 ft 309 kts 253°
2026-04-23 03:06 42.36583 -82.85575 14379 ft 309 kts 253°
2026-04-23 03:07 42.35843 -82.88299 14167 ft 308 kts 253°
2026-04-23 03:07 42.35105 -82.91007 13956 ft 308 kts 253°
2026-04-23 03:07 42.34361 -82.93725 13724 ft 307 kts 253°
2026-04-23 03:07 42.33622 -82.96422 13510 ft 306 kts 253°
2026-04-23 03:08 42.32886 -82.99112 13299 ft 305 kts 253°
2026-04-23 03:08 42.32149 -83.01795 13086 ft 304 kts 253°
2026-04-23 03:08 42.31414 -83.04467 12880 ft 303 kts 253°
2026-04-23 03:08 42.30681 -83.07131 12670 ft 302 kts 253°
2026-04-23 03:09 42.29950 -83.09789 12460 ft 301 kts 253°
2026-04-23 03:09 42.29171 -83.12412 12249 ft 302 kts 246°
2026-04-23 03:09 42.27975 -83.14757 12083 ft 306 kts 231°
2026-04-23 03:09 42.26356 -83.16638 12030 ft 309 kts 216°
2026-04-23 03:10 42.24457 -83.18033 12044 ft 312 kts 209°
2026-04-23 03:10 42.22525 -83.19367 12045 ft 312 kts 209°
2026-04-23 03:10 42.20591 -83.20701 12046 ft 312 kts 209°
2026-04-23 03:10 42.18657 -83.22029 12035 ft 312 kts 209°
2026-04-23 03:11 42.16729 -83.23356 12038 ft 311 kts 209°
2026-04-23 03:11 42.14812 -83.24671 12032 ft 303 kts 209°
2026-04-23 03:11 42.12979 -83.25928 12033 ft 288 kts 209°
2026-04-23 03:11 42.11236 -83.27121 12034 ft 274 kts 210°
2026-04-23 03:12 42.09567 -83.28278 11782 ft 271 kts 210°
2026-04-23 03:12 42.07855 -83.29524 11046 ft 288 kts 211°
2026-04-23 03:12 42.06058 -83.30862 10290 ft 303 kts 211°
2026-04-23 03:12 42.04189 -83.32255 9791 ft 307 kts 211°
2026-04-23 03:13 42.02358 -83.33613 9682 ft 294 kts 211°
2026-04-23 03:13 42.00604 -83.34907 9611 ft 281 kts 211°
2026-04-23 03:13 41.98924 -83.36137 9534 ft 269 kts 210°
2026-04-23 03:13 41.97324 -83.37305 9397 ft 254 kts 210°
2026-04-23 03:14 41.95788 -83.38441 8751 ft 257 kts 213°
2026-04-23 03:14 41.94493 -83.40138 7820 ft 267 kts 241°
2026-04-23 03:14 41.93909 -83.42509 6879 ft 273 kts 268°
2026-04-23 03:14 41.94262 -83.45013 6019 ft 276 kts 296°
2026-04-23 03:15 41.95465 -83.46993 5275 ft 277 kts 323°
2026-04-23 03:15 41.97234 -83.47938 4698 ft 274 kts 352°
2026-04-23 03:15 41.99069 -83.47661 4403 ft 261 kts 17°
2026-04-23 03:15 42.00731 -83.46892 4176 ft 245 kts 18°
2026-04-23 03:16 42.02290 -83.46157 3968 ft 230 kts 18°
2026-04-23 03:16 42.03758 -83.45457 3785 ft 217 kts 18°
2026-04-23 03:16 42.06449 -83.44170 3465 ft 192 kts 18°
2026-04-23 03:17 42.07693 -83.43578 3283 ft 187 kts 19°
2026-04-23 03:17 42.08886 -83.42921 3030 ft 185 kts 25°
2026-04-23 03:17 42.10030 -83.42155 2785 ft 181 kts 28°
2026-04-23 03:17 42.11087 -83.41400 2549 ft 164 kts 31°
2026-04-23 03:18 42.12053 -83.40699 2339 ft 151 kts 31°
2026-04-23 03:18 42.12936 -83.40053 2145 ft 138 kts 32°
2026-04-23 03:18 42.13750 -83.39457 1969 ft 130 kts 33°
2026-04-23 03:18 42.14534 -83.38881 1805 ft 126 kts 34°
2026-04-23 03:19 42.15296 -83.38321 1637 ft 124 kts 33°
2026-04-23 03:19 42.16059 -83.37759 1463 ft 125 kts 32°
2026-04-23 03:19 42.16814 -83.37204 1301 ft 124 kts 33°
2026-04-23 03:19 42.17574 -83.36644 1141 ft 125 kts 31°
2026-04-23 03:20 42.18339 -83.36072 1034 ft 126 kts 31°
2026-04-23 03:20 42.19109 -83.35504 798 ft 126 kts 30°
2026-04-23 03:20 42.19874 -83.34954 650 ft 120 kts 31°
2026-04-23 03:20 42.20474 -83.34499 651 ft 74 kts 28°
2026-04-23 03:21 42.20710 -83.34332 651 ft 42 kts 28°
2026-04-23 03:21 42.20950 -83.34241 651 ft 22 kts 315°
2026-04-23 03:21 42.21036 -83.34412 650 ft 23 kts 295°
2026-04-23 03:21 42.21111 -83.34604 649 ft 24 kts 300°
2026-04-23 03:22 42.21168 -83.34738 647 ft 25 kts 300°
2026-04-23 03:22 42.21320 -83.34937 649 ft 18 kts 328°
2026-04-23 03:22 42.21427 -83.35028 650 ft 19 kts 329°
2026-04-23 03:22 42.21494 -83.35100 650 ft 17 kts 289°
2026-04-23 03:23 42.21446 -83.35172 650 ft 12 kts 213°
2026-04-23 03:23 42.21387 -83.35262 651 ft 15 kts 239°
2026-04-23 03:23 42.21377 -83.35346 650 ft 0 kts 294°